Home   Weather   Brades   Past weeks

Flag for Montserrat Past Weather in Brades, Montserrat — Yesterday and Last 2 Weeks

Now
79 °F

Passing clouds.


Feels Like: 82 °F
Forecast: 79 / 83 °F
Wind: 10 mph from East

Location: Vc Bird International Antigua Airport

Current Time: Dec 10, 2016 at 4:52:24 am

Latest Report: Dec 10, 2016 at 4:00 am


Visibility: N/A

Pressure: 30.01 "Hg

Humidity: 79%

Dew Point: 72 °F

Location of BradesLocation

Past Weather in Brades — Graph

°F

Brades Temperature Yesterday

Maximum temperature yesterday: 84 °F (at 12:00 pm)
Minimum temperature yesterday: 79 °F (at 12:00 am)
Average temperature yesterday: 80 °F

High & Low Weather Summary for the Past Weeks

 TemperatureHumidityPressure
High84 °F (Nov 25, 10:00 am)100% (Nov 28, 4:00 pm)30.07 "Hg (Nov 28, 4:00 pm)
Low72 °F (Nov 28, 1:00 pm)62% (Nov 26, 11:00 am)29.74 "Hg (Nov 28, 6:00 pm)
Average79 °F79%29.94 "Hg
* Reported Nov 25 3:00 am — Dec 10 3:00 am, Brades, Weather by CustomWeather, © 2016

Note: Actual official high and low records may vary slightly from our data, if they occured in-between our weather recording intervals... More about our weather records

Advertising

Brades Weather History for the Previous 24 Hours

Scroll right to see more
 ConditionsComfort  
Time TempWeatherWind HumidityBarometerVisibility
3:00 am
Sat, Dec 10
79 °FPassing clouds.10 mph79%29.98 "HgN/A
2:00 am79 °FPassing clouds.10 mph79%30.01 "HgN/A
1:00 am79 °FPassing clouds.10 mph84%30.01 "HgN/A
12:00 am79 °FPassing clouds.12 mph79%30.04 "HgN/A
11:00 pm
Fri, Dec 9
79 °FPassing clouds.10 mph84%30.07 "HgN/A
10:00 pm79 °FPassing clouds.9 mph84%30.07 "HgN/A
9:00 pm79 °FPassing clouds.No wind84%30.07 "HgN/A
8:00 pm81 °FPassing clouds.9 mph79%30.04 "HgN/A
7:00 pm81 °FPassing clouds.7 mph79%30.01 "HgN/A
6:00 pm79 °FPassing clouds.6 mph84%29.98 "HgN/A
5:00 pm81 °FPassing clouds.7 mph79%29.98 "HgN/A
4:00 pm81 °FPassing clouds.8 mph79%29.98 "HgN/A
3:00 pm82 °FPassing clouds.10 mph79%29.98 "HgN/A
2:00 pm82 °FScattered clouds.10 mph74%29.98 "HgN/A
1:00 pm82 °FScattered clouds.10 mph74%29.98 "HgN/A
12:00 pm84 °FPassing clouds.12 mph70%30.01 "HgN/A
11:00 am82 °FPassing clouds.13 mph74%30.04 "HgN/A
10:00 am82 °FScattered clouds.12 mph74%30.04 "HgN/A
9:00 am82 °FPassing clouds.12 mph74%30.04 "HgN/A
8:00 am81 °FPassing clouds.9 mph79%30.01 "HgN/A
7:00 am79 °FPassing clouds.8 mph79%29.98 "HgN/A
6:00 am79 °FPassing clouds.9 mph84%29.98 "HgN/A
5:00 am79 °FPassing clouds.9 mph79%29.98 "HgN/A
4:00 am79 °FPassing clouds.9 mph79%29.95 "HgN/A
Weather by CustomWeather, © 2016

See weather overviewHow to use our weather pages